Location: Brivio
(45.7333°N, 9.4500°E)
Time: 18:10:08
(UTC+00:00)

SJ-11-01 - Pass Details

Date: 18 October 2019
Orbit: 684 x 701 km, 98.0° (Epoch: 22 November)

Event Time Altitude Azimuth Distance (km) Brightness Sun altitude
Exits shadow 18:24:11 46° 92° (E) 924 4.4 -20.3°
Maximum altitude 18:24:41 49° 71° (ENE) 898 4.5 -20.4°
Drops below altitude 10° 18:29:12 10° 357° (N) 2,150 6.9 -21.2°
Sets 18:31:30 0° 352° (N) 3,068 7.8 -21.6°
